TimeCDT,TemperatureF,Dew PointF,Humidity,Sea Level PressureIn,VisibilityMPH,Wind Direction,Wind SpeedMPH,Gust SpeedMPH,PrecipitationIn,Events,Conditions,WindDirDegrees,DateUTC
12:15 AM,57.2,51.8,82,30.05,10.0,SSW,8.1,-,N/A,,Clear,200,2012-10-04 05:15:00
12:35 AM,57.4,52.3,83,30.06,7.0,SSW,10.4,-,N/A,,Scattered Clouds,210,2012-10-04 05:35:00
12:55 AM,57.7,52.9,84,30.06,10.0,SSW,9.2,-,N/A,,Scattered Clouds,210,2012-10-04 05:55:00
1:15 AM,57.4,53.1,85,30.06,10.0,SSW,8.1,-,N/A,,Clear,210,2012-10-04 06:15:00
1:35 AM,56.7,52.9,87,30.06,7.0,SW,5.8,-,N/A,,Clear,220,2012-10-04 06:35:00
1:55 AM,56.1,52.5,88,30.06,10.0,WSW,4.6,-,N/A,,Clear,240,2012-10-04 06:55:00
2:15 AM,58.3,53.2,83,30.07,10.0,West,6.9,-,N/A,,Clear,260,2012-10-04 07:15:00
2:35 AM,57.2,53.1,86,30.07,7.0,West,4.6,-,N/A,,Mostly Cloudy,270,2012-10-04 07:35:00
2:55 AM,56.8,53.2,88,30.08,7.0,WSW,4.6,-,N/A,,Overcast,250,2012-10-04 07:55:00
3:15 AM,56.7,53.2,88,30.08,10.0,SW,3.5,-,N/A,,Overcast,230,2012-10-04 08:15:00
3:35 AM,57.2,53.2,87,30.08,10.0,SSW,5.8,-,N/A,Rain,Light Rain,210,2012-10-04 08:35:00
3:55 AM,57.2,53.6,88,30.08,10.0,South,6.9,-,N/A,Rain,Light Rain,190,2012-10-04 08:55:00
4:15 AM,56.8,53.6,89,30.08,10.0,South,3.5,-,N/A,Rain,Light Rain,190,2012-10-04 09:15:00
4:35 AM,56.8,53.8,89,30.08,10.0,SSE,4.6,-,N/A,Rain,Light Rain,160,2012-10-04 09:35:00
4:55 AM,56.8,54.0,90,30.09,10.0,SW,4.6,-,N/A,Rain,Light Rain,230,2012-10-04 09:55:00
5:15 AM,56.7,54.0,91,30.09,7.0,South,4.6,-,N/A,Rain,Rain,190,2012-10-04 10:15:00
5:35 AM,55.8,53.1,91,30.09,10.0,South,4.6,-,N/A,Rain,Rain,190,2012-10-04 10:35:00
5:55 AM,54.7,52.3,92,30.09,7.0,South,4.6,-,N/A,Rain,Rain,180,2012-10-04 10:55:00
6:15 AM,54.7,52.2,91,30.09,7.0,Calm,Calm,-,N/A,Rain,Light Rain,0,2012-10-04 11:15:00
6:35 AM,54.5,52.3,92,30.09,7.0,SSE,3.5,-,N/A,,Clear,160,2012-10-04 11:35:00
6:55 AM,53.8,51.8,93,30.09,5.0,South,3.5,-,N/A,,Clear,170,2012-10-04 11:55:00
7:15 AM,53.8,52.2,94,30.09,5.0,SSE,3.5,-,N/A,,Clear,160,2012-10-04 12:15:00
7:35 AM,54.9,53.1,94,30.10,5.0,South,3.5,-,N/A,,Clear,180,2012-10-04 12:35:00
7:55 AM,56.8,54.3,91,30.10,7.0,SSW,5.8,-,N/A,,Clear,200,2012-10-04 12:55:00
8:15 AM,58.3,54.7,88,30.11,7.0,SSW,6.9,-,N/A,,Clear,210,2012-10-04 13:15:00
8:35 AM,59.5,55.0,85,30.11,7.0,SSW,8.1,-,N/A,,Clear,210,2012-10-04 13:35:00
8:55 AM,61.2,55.9,83,30.11,7.0,SSW,6.9,-,N/A,,Clear,200,2012-10-04 13:55:00
9:15 AM,62.8,56.3,79,30.11,7.0,SSW,9.2,-,N/A,,Clear,210,2012-10-04 14:15:00
9:35 AM,64.4,56.7,76,30.11,7.0,SW,9.2,-,N/A,,Clear,220,2012-10-04 14:35:00
9:55 AM,66.2,56.8,72,30.11,7.0,SW,11.5,-,N/A,,Clear,220,2012-10-04 14:55:00
10:15 AM,67.8,56.8,68,30.10,7.0,SSW,10.4,16.1,N/A,,Clear,210,2012-10-04 15:15:00
10:35 AM,69.1,57.2,66,30.10,7.0,South,11.5,-,N/A,,Clear,190,2012-10-04 15:35:00
10:55 AM,70.7,57.0,62,30.10,7.0,SW,9.2,-,N/A,,Clear,230,2012-10-04 15:55:00
11:15 AM,72.0,56.7,58,30.09,7.0,SW,11.5,-,N/A,,Clear,220,2012-10-04 16:15:00
11:35 AM,73.4,56.3,55,30.08,5.0,SSW,11.5,17.3,N/A,,Haze,210,2012-10-04 16:35:00
11:55 AM,75.0,55.9,51,30.08,5.0,SW,15.0,-,N/A,,Haze,230,2012-10-04 16:55:00
12:15 PM,76.5,55.8,49,30.07,7.0,SW,12.7,-,N/A,,Clear,220,2012-10-04 17:15:00
12:35 PM,77.4,54.5,45,30.07,7.0,SW,16.1,21.9,N/A,,Clear,220,2012-10-04 17:35:00
12:55 PM,78.6,54.1,43,30.06,7.0,SW,16.1,21.9,N/A,,Clear,230,2012-10-04 17:55:00
1:15 PM,79.0,53.6,41,30.05,7.0,SW,17.3,21.9,N/A,,Clear,230,2012-10-04 18:15:00
1:35 PM,78.8,51.8,39,30.05,7.0,SW,18.4,24.2,N/A,,Clear,230,2012-10-04 18:35:00
1:55 PM,79.9,51.4,37,30.05,7.0,SW,18.4,25.3,N/A,,Scattered Clouds,220,2012-10-04 18:55:00
2:15 PM,79.9,50.5,36,30.05,7.0,WSW,19.6,27.6,N/A,,Scattered Clouds,240,2012-10-04 19:15:00
2:35 PM,79.9,50.7,36,30.05,5.0,WSW,19.6,28.8,N/A,,Haze,240,2012-10-04 19:35:00
2:55 PM,79.9,51.4,37,30.05,5.0,SW,18.4,25.3,N/A,,Haze,220,2012-10-04 19:55:00
3:15 PM,80.1,51.6,37,30.04,7.0,SW,17.3,27.6,N/A,,Clear,220,2012-10-04 20:15:00
3:35 PM,79.7,52.7,39,30.04,5.0,SW,16.1,26.5,N/A,,Haze,220,2012-10-04 20:35:00
3:55 PM,79.5,52.0,38,30.03,5.0,SW,20.7,24.2,N/A,,Haze,220,2012-10-04 20:55:00
4:15 PM,79.2,52.7,40,30.03,5.0,SW,18.4,21.9,N/A,,Haze,220,2012-10-04 21:15:00
4:35 PM,78.8,52.7,40,30.03,7.0,SW,16.1,24.2,N/A,,Clear,220,2012-10-04 21:35:00
4:55 PM,78.3,52.9,41,30.03,5.0,SW,11.5,19.6,N/A,,Haze,220,2012-10-04 21:55:00
5:15 PM,77.0,53.6,44,30.03,7.0,SW,17.3,23.0,N/A,,Clear,220,2012-10-04 22:15:00
5:35 PM,75.7,53.6,46,30.04,5.0,SW,13.8,20.7,N/A,,Haze,220,2012-10-04 22:35:00
5:55 PM,75.4,53.4,46,30.04,5.0,SSW,15.0,21.9,N/A,,Haze,210,2012-10-04 22:55:00
6:15 PM,74.1,54.0,49,30.04,5.0,SSW,10.4,-,N/A,,Haze,210,2012-10-04 23:15:00
6:35 PM,73.9,54.1,50,30.04,7.0,SSW,12.7,-,N/A,,Mostly Cloudy,200,2012-10-04 23:35:00
6:55 PM,71.8,54.0,53,30.07,7.0,NW,16.1,31.1,N/A,,Mostly Cloudy,310,2012-10-04 23:55:00
7:15 PM,65.8,53.1,63,30.07,7.0,NW,8.1,-,N/A,Rain,Rain,320,2012-10-05 00:15:00
7:35 PM,64.4,52.9,66,30.08,7.0,NNW,5.8,-,N/A,Rain,Rain,330,2012-10-05 00:35:00
7:55 PM,62.6,51.8,68,30.08,7.0,NNW,8.1,-,N/A,Rain,Rain,330,2012-10-05 00:55:00
8:15 PM,61.7,50.4,66,30.08,7.0,NW,3.5,-,N/A,Rain,Rain,320,2012-10-05 01:15:00
8:35 PM,61.7,51.1,68,30.10,7.0,WNW,3.5,-,N/A,Rain,Rain,300,2012-10-05 01:35:00
8:55 PM,61.7,50.9,68,30.10,7.0,WNW,8.1,-,N/A,Rain,Rain,300,2012-10-05 01:55:00
9:15 PM,59.9,48.6,66,30.10,7.0,NW,16.1,20.7,N/A,Rain,Rain,310,2012-10-05 02:15:00
9:35 PM,56.8,49.1,75,30.11,7.0,NW,8.1,-,N/A,Rain,Rain,310,2012-10-05 02:35:00
9:55 PM,56.1,49.1,77,30.13,10.0,NW,9.2,17.3,N/A,Rain,Rain,320,2012-10-05 02:55:00
10:15 PM,55.4,49.1,79,30.14,10.0,NW,11.5,-,N/A,Rain,Rain,310,2012-10-05 03:15:00
10:35 PM,54.9,49.1,81,30.15,10.0,WNW,8.1,-,N/A,Rain,Rain,290,2012-10-05 03:35:00
10:55 PM,53.8,49.5,85,30.14,10.0,WNW,10.4,-,N/A,Rain,Rain,300,2012-10-05 03:55:00
11:15 PM,52.7,49.6,89,30.14,10.0,WNW,6.9,-,N/A,Rain,Light Rain,300,2012-10-05 04:15:00
11:35 PM,52.3,49.6,91,30.14,10.0,West,5.8,-,N/A,Rain,Light Rain,280,2012-10-05 04:35:00
11:55 PM,51.4,49.1,92,30.13,7.0,WNW,3.5,-,N/A,Rain,Rain,290,2012-10-05 04:55:00